Overview Statistics Trail Chart Weather Telemetry Raw packets
 

This is the latest recevied weather packets stored in our database for station/object OK2JV-13. If no packets are shown the sender has not sent any weather packets the latest 10 day(s).

<< 4 5 6 7 8 9 10 >>
Time Temp. Humidity Pressure Rain* Wind** Luminosity Snow
1788586591 12.78° C 84% 1014.8 hPa - - - -
1788585987 13.33° C 87% 1014.8 hPa - - - -
1788585383 13.33° C 89% 1014.7 hPa - - - -
1788584779 13.33° C 89% 1014.3 hPa - - - -
1788584177 13.33° C 88% 1014.3 hPa - - - -
1788583571 13.33° C 88% 1014.5 hPa - - - -
1788582967 13.89° C 88% 1014.4 hPa - - - -
1788582365 13.89° C 87% 1014.1 hPa - - - -
1788581759 13.89° C 87% 1013.6 hPa - - - -
1788581157 13.89° C 85% 1013.8 hPa - - - -
1788580551 13.89° C 84% 1013.5 hPa - - - -
1788579947 14.44° C 83% 1013.2 hPa - - - -
1788579342 14.44° C 82% 1013.4 hPa - - - -
1788578739 14.44° C 81% 1013.9 hPa - - - -
1788578135 15° C 80% 1013.8 hPa - - - -
1788577531 15° C 80% 1013.4 hPa - - - -
1788576927 15° C 79% 1013.3 hPa - - - -
1788576322 15.56° C 77% 1013.4 hPa - - - -
1788575718 15.56° C 74% 1013.2 hPa - - - -
1788575114 16.11° C 72% 1012.8 hPa - - - -
1788574510 16.11° C 72% 1012.9 hPa - - - -
1788573907 16.11° C 71% 1012.7 hPa - - - -
1788573302 16.67° C 70% 1012.8 hPa - - - -
1788572698 16.67° C 70% 1013 hPa - - - -
1788572094 16.67° C 69% 1012.8 hPa - - - -

* Rain since midnight (hover to see other rain measurements)
** Current wind speed in m/s (hover to see current wind gust speed)